ANZ145 NZAA-YBBN

Flight info

Callsign ANZ145
Flight time 3h 19m
Altitude 38000
Route UPLAR A464 RIGMI/N0484F400 A464 DUBUD Q39 SAVER G329 UGTUG
Aircraft B789/H-SDE1E2E3FGHIJ2J3J4J5M1RWXY/LB1D1

Departure

Time 2026-05-06 20:19
Airport Auckland International Airport (NZAA)

Arrival

Time 2026-05-06 23:38
Airport Brisbane International Airport (YBBN)
Time Latitude Longitude Altitude Speed Heading
2026-05-06 19:42 -37.00522 174.77791 31 ft 0 kts 341°
2026-05-06 20:06 -37.00545 174.77801 30 ft 4 kts 341°
2026-05-06 20:06 -37.00571 174.77812 30 ft 4 kts 341°
2026-05-06 20:06 -37.00594 174.77822 30 ft 4 kts 337°
2026-05-06 20:07 -37.00612 174.77836 30 ft 4 kts 298°
2026-05-06 20:07 -37.00615 174.77861 30 ft 4 kts 256°
2026-05-06 20:07 -37.00607 174.77890 28 ft 2 kts 251°
2026-05-06 20:07 -37.00607 174.77892 28 ft 2 kts 251°
2026-05-06 20:09 -37.00607 174.77889 31 ft 1 kts 251°
2026-05-06 20:09 -37.00613 174.77869 31 ft 4 kts 251°
2026-05-06 20:10 -37.00620 174.77843 31 ft 0 kts 251°
2026-05-06 20:10 -37.00621 174.77841 31 ft 1 kts 251°
2026-05-06 20:10 -37.00626 174.77821 31 ft 4 kts 251°
2026-05-06 20:10 -37.00638 174.77779 31 ft 6 kts 251°
2026-05-06 20:11 -37.00655 174.77717 31 ft 9 kts 251°
2026-05-06 20:11 -37.00676 174.77638 31 ft 6 kts 251°
2026-05-06 20:11 -37.00691 174.77587 31 ft 7 kts 245°
2026-05-06 20:11 -37.00709 174.77559 31 ft 4 kts 220°
2026-05-06 20:12 -37.00734 174.77548 31 ft 4 kts 185°
2026-05-06 20:12 -37.00767 174.77555 31 ft 6 kts 167°
2026-05-06 20:12 -37.00814 174.77573 31 ft 8 kts 161°
2026-05-06 20:12 -37.00876 174.77600 30 ft 11 kts 161°
2026-05-06 20:13 -37.00952 174.77633 31 ft 13 kts 161°
2026-05-06 20:13 -37.01042 174.77673 31 ft 15 kts 161°
2026-05-06 20:13 -37.01108 174.77701 31 ft 8 kts 161°
2026-05-06 20:13 -37.01140 174.77705 31 ft 3 kts 194°
2026-05-06 20:14 -37.01160 174.77689 31 ft 3 kts 230°
2026-05-06 20:14 -37.01178 174.77661 31 ft 5 kts 226°
2026-05-06 20:14 -37.01213 174.77642 31 ft 6 kts 188°
2026-05-06 20:14 -37.01251 174.77648 31 ft 5 kts 186°
2026-05-06 20:15 -37.01282 174.77623 31 ft 6 kts 227°
2026-05-06 20:15 -37.01302 174.77573 31 ft 8 kts 251°
2026-05-06 20:15 -37.01322 174.77499 31 ft 10 kts 251°
2026-05-06 20:15 -37.01348 174.77405 31 ft 13 kts 251°
2026-05-06 20:16 -37.01376 174.77299 31 ft 13 kts 251°
2026-05-06 20:16 -37.01404 174.77198 31 ft 9 kts 250°
2026-05-06 20:16 -37.01429 174.77137 31 ft 8 kts 229°
2026-05-06 20:16 -37.01481 174.77103 31 ft 9 kts 192°
2026-05-06 20:17 -37.01547 174.77088 31 ft 8 kts 190°
2026-05-06 20:17 -37.01603 174.77101 31 ft 8 kts 142°
2026-05-06 20:17 -37.01612 174.77151 31 ft 6 kts 76°
2026-05-06 20:17 -37.01609 174.77164 31 ft 0 kts 72°
2026-05-06 20:18 -37.01605 174.77178 31 ft 3 kts 72°
2026-05-06 20:18 -37.01578 174.77281 31 ft 24 kts 72°
2026-05-06 20:18 -37.01486 174.77630 31 ft 69 kts 71°
2026-05-06 20:18 -37.01250 174.78464 31 ft 133 kts 71°
2026-05-06 20:19 -37.00901 174.79762 267 ft 166 kts 77°
2026-05-06 20:19 -37.00556 174.80973 1410 ft 137 kts 63°
2026-05-06 20:19 -37.00205 174.82163 1873 ft 154 kts 66°
2026-05-06 20:19 -36.99869 174.83470 2403 ft 160 kts 66°
2026-05-06 20:20 -36.99508 174.84801 2975 ft 163 kts 65°
2026-05-06 20:20 -36.99129 174.86163 3518 ft 168 kts 65°
2026-05-06 20:20 -36.98735 174.87577 3962 ft 179 kts 65°
2026-05-06 20:20 -36.98307 174.89109 4331 ft 194 kts 66°
2026-05-06 20:21 -36.97847 174.90759 4711 ft 208 kts 66°
2026-05-06 20:21 -36.97355 174.92525 5093 ft 222 kts 66°
2026-05-06 20:21 -36.96839 174.94380 5452 ft 237 kts 66°
2026-05-06 20:21 -36.96273 174.96408 5905 ft 254 kts 67°
2026-05-06 20:22 -36.95424 174.98361 6383 ft 260 kts 43°
2026-05-06 20:22 -36.93971 174.99671 7105 ft 260 kts 23°
2026-05-06 20:22 -36.92205 175.00080 7836 ft 260 kts
2026-05-06 20:22 -36.90454 174.99530 8552 ft 263 kts 335°
2026-05-06 20:23 -36.88984 174.98155 9377 ft 265 kts 319°
2026-05-06 20:23 -36.87608 174.96599 10163 ft 268 kts 320°
2026-05-06 20:23 -36.86203 174.95047 10870 ft 271 kts 320°
2026-05-06 20:23 -36.84807 174.93445 11523 ft 276 kts 314°
2026-05-06 20:24 -36.83897 174.91290 12144 ft 285 kts 291°
2026-05-06 20:24 -36.83669 174.88760 12480 ft 307 kts 268°
2026-05-06 20:24 -36.83894 174.86080 12886 ft 321 kts 268°
2026-05-06 20:24 -36.84071 174.83240 13293 ft 335 kts 268°
2026-05-06 20:25 -36.84240 174.80265 13736 ft 348 kts 268°
2026-05-06 20:25 -36.84431 174.77229 14369 ft 353 kts 267°
2026-05-06 20:25 -36.84636 174.74149 15015 ft 357 kts 267°
2026-05-06 20:25 -36.84833 174.71048 15655 ft 360 kts 267°
2026-05-06 20:26 -36.84960 174.68971 16077 ft 362 kts 267°
2026-05-06 20:26 -36.85155 174.65812 16707 ft 366 kts 267°
2026-05-06 20:26 -36.85353 174.62637 17348 ft 369 kts 267°
2026-05-06 20:26 -36.85618 174.58379 18154 ft 373 kts 267°
2026-05-06 20:27 -36.85753 174.56190 18553 ft 376 kts 267°
2026-05-06 20:27 -36.85953 174.52920 19069 ft 379 kts 267°
2026-05-06 20:27 -36.86153 174.49652 19575 ft 382 kts 267°
2026-05-06 20:27 -36.86356 174.46325 20077 ft 385 kts 268°
2026-05-06 20:28 -36.86559 174.42974 20591 ft 388 kts 268°
2026-05-06 20:28 -36.86763 174.39587 21090 ft 391 kts 268°
2026-05-06 20:28 -36.86967 174.36189 21571 ft 394 kts 268°
2026-05-06 20:28 -36.87170 174.32793 22038 ft 397 kts 268°
2026-05-06 20:29 -36.87375 174.29341 22513 ft 400 kts 268°
2026-05-06 20:29 -36.87581 174.25856 22967 ft 403 kts 268°
2026-05-06 20:29 -36.87788 174.22337 23413 ft 406 kts 268°
2026-05-06 20:29 -36.87995 174.18798 23852 ft 409 kts 268°
2026-05-06 20:30 -36.88203 174.15233 24229 ft 412 kts 268°
2026-05-06 20:30 -36.88615 174.08105 24988 ft 416 kts 268°
2026-05-06 20:30 -36.88821 174.04490 25356 ft 418 kts 268°
2026-05-06 20:31 -36.88728 174.00853 25646 ft 419 kts 279°
2026-05-06 20:31 -36.88028 173.97330 26018 ft 419 kts 290°
2026-05-06 20:31 -36.86777 173.94035 26375 ft 420 kts 299°
2026-05-06 20:31 -36.85361 173.90838 26723 ft 422 kts 299°
2026-05-06 20:32 -36.83943 173.87633 27157 ft 422 kts 298°
2026-05-06 20:32 -36.82546 173.84440 27488 ft 425 kts 298°
2026-05-06 20:32 -36.81123 173.81180 27782 ft 429 kts 298°
2026-05-06 20:32 -36.79685 173.77910 28160 ft 430 kts 298°
2026-05-06 20:33 -36.78237 173.74632 28536 ft 432 kts 298°
2026-05-06 20:33 -36.76785 173.71338 28876 ft 435 kts 298°
2026-05-06 20:33 -36.75325 173.68020 29239 ft 438 kts 298°
2026-05-06 20:33 -36.73852 173.64682 29604 ft 440 kts 298°
2026-05-06 20:34 -36.72372 173.61334 29993 ft 442 kts 298°
2026-05-06 20:34 -36.70898 173.58006 30355 ft 445 kts 298°
2026-05-06 20:34 -36.69400 173.54619 30657 ft 447 kts 298°
2026-05-06 20:34 -36.67892 173.51216 31006 ft 449 kts 298°
2026-05-06 20:35 -36.66378 173.47805 31385 ft 450 kts 298°
2026-05-06 20:35 -36.64858 173.44383 31729 ft 452 kts 298°
2026-05-06 20:35 -36.63333 173.40954 32073 ft 454 kts 298°
2026-05-06 20:35 -36.61798 173.37509 32420 ft 456 kts 298°
2026-05-06 20:36 -36.60252 173.34044 32771 ft 458 kts 298°
2026-05-06 20:36 -36.58697 173.30559 33128 ft 460 kts 298°
2026-05-06 20:36 -36.57154 173.27106 33484 ft 462 kts 298°
2026-05-06 20:36 -36.55586 173.23601 33870 ft 464 kts 298°
2026-05-06 20:37 -36.54013 173.20091 34329 ft 463 kts 297°
2026-05-06 20:37 -36.52444 173.16590 34754 ft 462 kts 298°
2026-05-06 20:37 -36.50877 173.13099 35194 ft 461 kts 298°
2026-05-06 20:37 -36.49316 173.09623 35628 ft 459 kts 298°
2026-05-06 20:38 -36.47759 173.06162 36044 ft 459 kts 298°
2026-05-06 20:38 -36.46199 173.02696 36437 ft 458 kts 298°
2026-05-06 20:38 -36.44644 172.99246 36828 ft 457 kts 298°
2026-05-06 20:38 -36.43104 172.95832 37201 ft 457 kts 298°
2026-05-06 20:39 -36.41552 172.92394 37577 ft 456 kts 298°
2026-05-06 20:39 -36.39997 172.88954 37862 ft 458 kts 298°
2026-05-06 20:39 -36.38425 172.85481 37974 ft 462 kts 298°
2026-05-06 20:40 -36.35279 172.78541 37964 ft 458 kts 298°
2026-05-06 20:40 -36.32159 172.71669 37969 ft 456 kts 298°
2026-05-06 20:41 -36.29061 172.64863 37963 ft 456 kts 298°
2026-05-06 20:41 -36.25934 172.58008 37984 ft 456 kts 298°
2026-05-06 20:42 -36.22801 172.51150 37976 ft 458 kts 298°
2026-05-06 20:42 -36.19652 172.44275 37980 ft 458 kts 298°
2026-05-06 20:43 -36.16505 172.37417 37966 ft 456 kts 298°
2026-05-06 20:43 -36.13391 172.30644 37962 ft 455 kts 298°
2026-05-06 20:44 -36.10254 172.23835 37958 ft 455 kts 298°
2026-05-06 20:44 -36.07119 172.17043 37958 ft 455 kts 298°
2026-05-06 20:45 -36.03974 172.10245 37954 ft 455 kts 298°
2026-05-06 20:45 -36.00841 172.03486 37954 ft 455 kts 298°
2026-05-06 20:46 -35.97703 171.96731 37947 ft 451 kts 298°
2026-05-06 20:46 -35.94569 171.89994 37965 ft 454 kts 298°
2026-05-06 20:47 -35.91408 171.83216 37960 ft 454 kts 298°
2026-05-06 20:47 -35.88269 171.76497 37962 ft 454 kts 298°
2026-05-06 20:48 -35.85107 171.69744 37957 ft 454 kts 298°
2026-05-06 20:48 -35.81943 171.63000 37955 ft 452 kts 298°
2026-05-06 20:49 -35.78799 171.56312 37941 ft 450 kts 298°
2026-05-06 20:49 -35.75673 171.49674 37943 ft 451 kts 298°
2026-05-06 20:50 -35.72520 171.42992 37950 ft 452 kts 298°
2026-05-06 20:50 -35.69352 171.36292 37950 ft 453 kts 298°
2026-05-06 20:51 -35.66185 171.29607 37948 ft 451 kts 298°
2026-05-06 20:51 -35.63042 171.22986 37931 ft 447 kts 298°
2026-05-06 20:52 -35.59916 171.16411 37927 ft 447 kts 298°
2026-05-06 20:52 -35.56765 171.09785 37933 ft 448 kts 297°
2026-05-06 20:53 -35.54170 171.02832 37930 ft 448 kts 293°
2026-05-06 20:53 -35.51594 170.95918 37927 ft 447 kts 292°
2026-05-06 20:54 -35.49037 170.88950 37927 ft 445 kts 292°
2026-05-06 20:54 -35.46488 170.82082 37921 ft 441 kts 292°
2026-05-06 20:55 -35.43960 170.75253 37923 ft 443 kts 292°
2026-05-06 20:55 -35.41397 170.68359 37928 ft 444 kts 293°
2026-05-06 20:56 -35.38822 170.61443 37904 ft 445 kts 293°
2026-05-06 20:56 -35.36245 170.54538 37928 ft 446 kts 292°
2026-05-06 20:57 -35.33690 170.47708 37910 ft 439 kts 292°
2026-05-06 20:57 -35.31137 170.40892 37912 ft 441 kts 292°
2026-05-06 20:58 -35.28566 170.34049 37918 ft 443 kts 292°
2026-05-06 20:58 -35.26006 170.27248 37911 ft 442 kts 292°
2026-05-06 20:59 -35.23434 170.20430 37908 ft 440 kts 293°
2026-05-06 20:59 -35.20867 170.13639 37911 ft 436 kts 292°
2026-05-06 21:00 -35.18325 170.06927 37907 ft 435 kts 292°
2026-05-06 21:00 -35.15773 170.00203 37906 ft 436 kts 293°
2026-05-06 21:01 -35.13225 169.93505 37913 ft 437 kts 293°
2026-05-06 21:01 -35.10657 169.86766 37910 ft 437 kts 293°
2026-05-06 21:02 -35.08082 169.80025 37909 ft 438 kts 293°
2026-05-06 21:02 -35.05518 169.73327 37895 ft 433 kts 293°
2026-05-06 21:03 -35.02953 169.66639 37889 ft 435 kts 293°
2026-05-06 21:03 -35.00393 169.59977 37892 ft 436 kts 293°
2026-05-06 21:04 -34.97812 169.53276 37894 ft 436 kts 293°
2026-05-06 21:04 -34.95238 169.46605 37895 ft 436 kts 293°
2026-05-06 21:05 -34.92651 169.39915 37889 ft 435 kts 293°
2026-05-06 21:05 -34.90069 169.33254 37882 ft 433 kts 293°
2026-05-06 21:06 -34.87496 169.26623 37874 ft 433 kts 293°
2026-05-06 21:06 -34.84909 169.19974 37876 ft 434 kts 293°
2026-05-06 21:07 -34.82328 169.13353 37879 ft 435 kts 293°
2026-05-06 21:07 -34.79725 169.06690 37880 ft 436 kts 293°
2026-05-06 21:08 -34.77112 169.00016 37879 ft 436 kts 293°
2026-05-06 21:08 -34.74505 168.93370 37867 ft 434 kts 294°
2026-05-06 21:09 -34.71904 168.86750 37865 ft 434 kts 293°
2026-05-06 21:09 -34.69315 168.80176 37861 ft 434 kts 293°
2026-05-06 21:10 -34.66700 168.73549 37867 ft 434 kts 293°
2026-05-06 21:10 -34.64085 168.66934 37881 ft 432 kts 294°
2026-05-06 21:11 -34.61500 168.60410 37866 ft 431 kts 294°
2026-05-06 21:11 -34.58899 168.53856 37860 ft 431 kts 294°
2026-05-06 21:12 -34.56292 168.47303 37856 ft 431 kts 294°
2026-05-06 21:12 -34.53683 168.40755 37856 ft 431 kts 294°
2026-05-06 21:13 -34.51066 168.34201 37852 ft 431 kts 294°
2026-05-06 21:13 -34.48452 168.27667 37858 ft 429 kts 294°
2026-05-06 21:14 -34.45861 168.21202 37855 ft 429 kts 294°
2026-05-06 21:14 -34.43244 168.14685 37922 ft 432 kts 294°
2026-05-06 21:14 -34.42370 168.12515 38189 ft 432 kts 294°
2026-05-06 21:15 -34.41056 168.09251 38611 ft 430 kts 294°
2026-05-06 21:15 -34.39744 168.05994 38995 ft 428 kts 293°
2026-05-06 21:15 -34.38437 168.02753 39308 ft 428 kts 293°
2026-05-06 21:15 -34.37126 167.99504 39575 ft 428 kts 293°
2026-05-06 21:16 -34.35815 167.96258 39833 ft 429 kts 294°
2026-05-06 21:16 -34.34504 167.93017 40115 ft 429 kts 294°
2026-05-06 21:16 -34.33193 167.89779 40389 ft 429 kts 294°
2026-05-06 21:16 -34.31893 167.86571 40650 ft 429 kts 294°
2026-05-06 21:17 -34.30577 167.83325 40905 ft 429 kts 294°
2026-05-06 21:17 -34.29258 167.80077 41155 ft 430 kts 294°
2026-05-06 21:17 -34.27937 167.76826 41407 ft 430 kts 294°
2026-05-06 21:17 -34.26615 167.73577 41641 ft 431 kts 294°
2026-05-06 21:18 -34.25282 167.70301 41798 ft 434 kts 294°
2026-05-06 21:18 -34.22608 167.63744 41829 ft 439 kts 294°
2026-05-06 21:19 -34.19923 167.57175 41836 ft 434 kts 294°
2026-05-06 21:19 -34.17261 167.50670 41833 ft 431 kts 294°
2026-05-06 21:20 -34.14594 167.44168 41833 ft 431 kts 294°
2026-05-06 21:20 -34.11924 167.37670 41837 ft 432 kts 294°
2026-05-06 21:21 -34.09253 167.31183 41832 ft 432 kts 294°
2026-05-06 21:21 -34.06576 167.24691 41806 ft 432 kts 294°
2026-05-06 21:22 -34.03922 167.18269 41837 ft 429 kts 294°
2026-05-06 21:22 -34.01259 167.11838 41835 ft 429 kts 294°
2026-05-06 21:23 -33.98588 167.05398 41834 ft 430 kts 294°
2026-05-06 21:23 -33.95904 166.98941 41834 ft 431 kts 294°
2026-05-06 21:24 -33.93234 166.92529 41829 ft 431 kts 294°
2026-05-06 21:24 -33.90533 166.86055 41841 ft 432 kts 295°
2026-05-06 21:25 -33.87841 166.79614 41817 ft 428 kts 295°
2026-05-06 21:25 -33.85164 166.73221 41818 ft 427 kts 295°
2026-05-06 21:26 -33.82499 166.66869 41819 ft 428 kts 295°
2026-05-06 21:26 -33.79805 166.60459 41818 ft 428 kts 295°
2026-05-06 21:27 -33.77113 166.54065 41818 ft 429 kts 295°
2026-05-06 21:27 -33.74430 166.47705 41813 ft 428 kts 295°
2026-05-06 21:28 -33.71737 166.41336 41797 ft 426 kts 295°
2026-05-06 21:28 -33.69057 166.35004 41802 ft 425 kts 295°
2026-05-06 21:29 -33.66372 166.28673 41799 ft 425 kts 295°
2026-05-06 21:29 -33.63696 166.22377 41807 ft 426 kts 295°
2026-05-06 21:30 -33.61003 166.16051 41803 ft 426 kts 295°
2026-05-06 21:30 -33.58301 166.09718 41804 ft 425 kts 295°
2026-05-06 21:31 -33.55606 166.03409 41795 ft 424 kts 295°
2026-05-06 21:31 -33.52916 165.97127 41790 ft 423 kts 295°
2026-05-06 21:32 -33.50242 165.90891 41794 ft 424 kts 295°
2026-05-06 21:32 -33.46179 165.81435 41804 ft 427 kts 295°
2026-05-06 21:33 -33.43448 165.75097 41802 ft 427 kts 295°
2026-05-06 21:33 -33.40734 165.68808 41797 ft 424 kts 295°
2026-05-06 21:34 -33.38046 165.62589 41787 ft 423 kts 295°
2026-05-06 21:34 -33.35342 165.56346 41791 ft 421 kts 295°
2026-05-06 21:35 -33.32631 165.50097 41795 ft 424 kts 295°
2026-05-06 21:35 -33.29920 165.43858 41795 ft 426 kts 295°
2026-05-06 21:36 -33.27183 165.37575 41799 ft 425 kts 295°
2026-05-06 21:36 -33.24455 165.31318 41791 ft 423 kts 295°
2026-05-06 21:37 -33.21748 165.25122 41788 ft 422 kts 295°
2026-05-06 21:37 -33.19032 165.18919 41783 ft 421 kts 295°
2026-05-06 21:38 -33.16307 165.12703 41787 ft 423 kts 295°
2026-05-06 21:38 -33.13569 165.06470 41802 ft 424 kts 295°
2026-05-06 21:39 -33.10860 165.00314 41792 ft 420 kts 295°
2026-05-06 21:39 -33.08142 164.94145 41790 ft 420 kts 295°
2026-05-06 21:40 -33.05416 164.87974 41789 ft 420 kts 295°
2026-05-06 21:40 -33.02683 164.81793 41791 ft 421 kts 295°
2026-05-06 21:41 -32.99964 164.75658 41792 ft 420 kts 295°
2026-05-06 21:41 -32.97229 164.69496 41776 ft 420 kts 295°
2026-05-06 21:42 -32.94495 164.63346 41782 ft 419 kts 295°
2026-05-06 21:42 -32.91763 164.57212 41780 ft 419 kts 295°
2026-05-06 21:43 -32.89051 164.51133 41773 ft 418 kts 295°
2026-05-06 21:43 -32.86320 164.45022 41774 ft 419 kts 295°
2026-05-06 21:44 -32.83576 164.38892 41780 ft 420 kts 295°
2026-05-06 21:44 -32.80825 164.32756 41785 ft 421 kts 295°
2026-05-06 21:45 -32.78061 164.26603 41790 ft 422 kts 296°
2026-05-06 21:45 -32.75300 164.20467 41786 ft 421 kts 296°
2026-05-06 21:46 -32.72553 164.14372 41784 ft 420 kts 296°
2026-05-06 21:46 -32.69793 164.08259 41782 ft 419 kts 296°
2026-05-06 21:47 -32.67032 164.02154 41772 ft 418 kts 296°
2026-05-06 21:47 -32.64292 163.96107 41764 ft 418 kts 295°
2026-05-06 21:48 -32.61545 163.90051 41769 ft 417 kts 295°
2026-05-06 21:48 -32.58786 163.83980 41770 ft 417 kts 295°
2026-05-06 21:49 -32.56024 163.77915 41768 ft 418 kts 295°
2026-05-06 21:49 -32.53260 163.71852 41775 ft 418 kts 295°
2026-05-06 21:50 -32.50490 163.65790 41771 ft 419 kts 295°
2026-05-06 21:50 -32.47712 163.59718 41777 ft 419 kts 296°
2026-05-06 21:51 -32.44946 163.53683 41777 ft 419 kts 296°
2026-05-06 21:51 -32.42155 163.47605 41771 ft 420 kts 296°
2026-05-06 21:52 -32.39361 163.41528 41776 ft 420 kts 296°
2026-05-06 21:52 -32.36561 163.35449 41774 ft 421 kts 296°
2026-05-06 21:53 -32.33753 163.29364 41785 ft 420 kts 296°
2026-05-06 21:53 -32.30982 163.23368 41761 ft 416 kts 296°
2026-05-06 21:54 -32.28205 163.17366 41755 ft 416 kts 296°
2026-05-06 21:54 -32.25420 163.11363 41758 ft 416 kts 296°
2026-05-06 21:55 -32.22642 163.05381 41756 ft 417 kts 296°
2026-05-06 21:55 -32.19853 162.99384 41759 ft 417 kts 296°
2026-05-06 21:56 -32.17054 162.93382 41768 ft 417 kts 296°
2026-05-06 21:56 -32.14257 162.87394 41769 ft 416 kts 296°
2026-05-06 21:57 -32.11460 162.81414 41766 ft 415 kts 296°
2026-05-06 21:57 -32.08673 162.75467 41762 ft 414 kts 296°
2026-05-06 21:58 -32.05884 162.69523 41765 ft 415 kts 296°
2026-05-06 21:58 -32.03096 162.63591 41771 ft 417 kts 296°
2026-05-06 21:59 -32.00281 162.57612 41771 ft 417 kts 296°
2026-05-06 21:59 -31.97471 162.51654 41770 ft 415 kts 296°
2026-05-06 22:00 -31.94668 162.45720 41768 ft 414 kts 296°
2026-05-06 22:00 -31.91868 162.39801 41769 ft 414 kts 296°
2026-05-06 22:01 -31.89538 162.34883 41764 ft 413 kts 296°
2026-05-06 22:01 -31.86741 162.28986 41764 ft 413 kts 296°
2026-05-06 22:02 -31.83938 162.23088 41775 ft 413 kts 296°
2026-05-06 22:02 -31.81135 162.17200 41773 ft 412 kts 296°
2026-05-06 22:03 -31.78338 162.11331 41773 ft 411 kts 296°
2026-05-06 22:03 -31.75559 162.05511 41772 ft 411 kts 296°
2026-05-06 22:04 -31.72749 161.99634 41777 ft 413 kts 296°
2026-05-06 22:04 -31.69921 161.93731 41779 ft 414 kts 296°
2026-05-06 22:05 -31.67105 161.87859 41774 ft 415 kts 296°
2026-05-06 22:05 -31.64277 161.81975 41775 ft 413 kts 296°
2026-05-06 22:06 -31.61448 161.76095 41771 ft 412 kts 296°
2026-05-06 22:06 -31.58625 161.70237 41770 ft 411 kts 296°
2026-05-06 22:07 -31.55809 161.64404 41767 ft 411 kts 296°
2026-05-06 22:07 -31.53010 161.58614 41740 ft 411 kts 296°
2026-05-06 22:08 -31.50194 161.52798 41772 ft 408 kts 296°
2026-05-06 22:08 -31.47388 161.47011 41773 ft 408 kts 296°
2026-05-06 22:09 -31.44578 161.41225 41774 ft 408 kts 296°
2026-05-06 22:09 -31.41767 161.35445 41774 ft 408 kts 296°
2026-05-06 22:10 -31.38970 161.29704 41778 ft 408 kts 296°
2026-05-06 22:10 -31.36152 161.23928 41778 ft 408 kts 296°
2026-05-06 22:11 -31.33330 161.18153 41774 ft 407 kts 296°
2026-05-06 22:11 -31.30520 161.12411 41772 ft 406 kts 296°
2026-05-06 22:12 -31.27703 161.06661 41771 ft 407 kts 296°
2026-05-06 22:12 -31.24898 161.00948 41775 ft 408 kts 296°
2026-05-06 22:13 -31.22064 160.95182 41779 ft 409 kts 296°
2026-05-06 22:13 -31.19222 160.89409 41778 ft 410 kts 296°
2026-05-06 22:14 -31.16377 160.83640 41775 ft 408 kts 296°
2026-05-06 22:14 -31.13570 160.77955 41768 ft 404 kts 296°
2026-05-06 22:15 -31.10757 160.72266 41764 ft 404 kts 296°
2026-05-06 22:15 -31.07946 160.66589 41763 ft 404 kts 296°
2026-05-06 22:16 -31.05125 160.60903 41762 ft 404 kts 296°
2026-05-06 22:16 -31.02329 160.55273 41762 ft 404 kts 296°
2026-05-06 22:17 -30.99502 160.49592 41766 ft 402 kts 296°
2026-05-06 22:17 -30.96696 160.43958 41764 ft 402 kts 296°
2026-05-06 22:18 -30.93882 160.38317 41766 ft 403 kts 296°
2026-05-06 22:18 -30.91057 160.32663 41770 ft 403 kts 296°
2026-05-06 22:19 -30.88248 160.27048 41773 ft 404 kts 296°
2026-05-06 22:19 -30.85411 160.21388 41776 ft 405 kts 296°
2026-05-06 22:20 -30.82565 160.15717 41773 ft 403 kts 296°
2026-05-06 22:20 -30.79760 160.10134 41769 ft 402 kts 296°
2026-05-06 22:21 -30.76935 160.04521 41763 ft 401 kts 296°
2026-05-06 22:21 -30.74123 159.98944 41774 ft 398 kts 296°
2026-05-06 22:22 -30.71333 159.93412 41777 ft 400 kts 296°
2026-05-06 22:22 -30.68505 159.87819 41777 ft 401 kts 296°
2026-05-06 22:23 -30.65678 159.82234 41777 ft 400 kts 296°
2026-05-06 22:23 -30.62861 159.76678 41765 ft 397 kts 296°
2026-05-06 22:24 -30.60072 159.71181 41769 ft 398 kts 296°
2026-05-06 22:24 -30.57251 159.65631 41766 ft 399 kts 296°
2026-05-06 22:25 -30.54422 159.60075 41775 ft 400 kts 296°
2026-05-06 22:25 -30.51585 159.54508 41779 ft 401 kts 296°
2026-05-06 22:26 -30.48741 159.48938 41777 ft 400 kts 296°
2026-05-06 22:26 -30.45919 159.43419 41774 ft 399 kts 296°
2026-05-06 22:27 -30.43088 159.37888 41761 ft 397 kts 296°
2026-05-06 22:27 -30.40266 159.32383 41768 ft 398 kts 296°
2026-05-06 22:28 -30.37451 159.26898 41775 ft 400 kts 296°
2026-05-06 22:28 -30.34609 159.21373 41767 ft 397 kts 296°
2026-05-06 22:29 -30.31782 159.15880 41765 ft 396 kts 296°
2026-05-06 22:29 -30.28958 159.10402 41762 ft 395 kts 296°
2026-05-06 22:30 -30.26143 159.04947 41764 ft 395 kts 296°
2026-05-06 22:30 -30.23329 158.99503 41768 ft 397 kts 296°
2026-05-06 22:31 -30.20485 158.94009 41777 ft 398 kts 296°
2026-05-06 22:31 -30.17644 158.88528 41778 ft 399 kts 296°
2026-05-06 22:32 -30.14785 158.83021 41778 ft 399 kts 297°
2026-05-06 22:32 -30.11933 158.77535 41776 ft 397 kts 297°
2026-05-06 22:33 -30.09107 158.72105 41769 ft 396 kts 297°
2026-05-06 22:33 -30.06270 158.66662 41765 ft 395 kts 297°
2026-05-06 22:34 -30.03431 158.61222 41764 ft 395 kts 297°
2026-05-06 22:34 -30.00582 158.55770 41766 ft 397 kts 297°
2026-05-06 22:35 -29.97740 158.50340 41731 ft 398 kts 297°
2026-05-06 22:35 -29.94895 158.44911 41777 ft 395 kts 297°
2026-05-06 22:36 -29.92046 158.39482 41769 ft 394 kts 297°
2026-05-06 22:36 -29.89221 158.34107 41774 ft 394 kts 297°
2026-05-06 22:37 -29.86378 158.28702 41777 ft 394 kts 297°
2026-05-06 22:37 -29.83534 158.23305 41775 ft 394 kts 297°
2026-05-06 22:38 -29.80681 158.17898 41766 ft 395 kts 297°
2026-05-06 22:38 -29.77818 158.12479 41771 ft 397 kts 297°
2026-05-06 22:39 -29.74955 158.07065 41771 ft 397 kts 297°
2026-05-06 22:39 -29.72079 158.01637 41771 ft 397 kts 297°
2026-05-06 22:40 -29.69206 157.96220 41770 ft 396 kts 297°
2026-05-06 22:40 -29.66332 157.90811 41768 ft 396 kts 297°
2026-05-06 22:41 -29.62045 157.82752 41768 ft 394 kts 297°
2026-05-06 22:42 -29.59169 157.77355 41764 ft 393 kts 297°
2026-05-06 22:42 -29.56335 157.72045 41780 ft 392 kts 297°
2026-05-06 22:43 -29.53475 157.66691 41779 ft 393 kts 297°
2026-05-06 22:43 -29.50612 157.61339 41780 ft 394 kts 297°
2026-05-06 22:44 -29.47740 157.55979 41780 ft 394 kts 297°
2026-05-06 22:44 -29.44879 157.50645 41780 ft 394 kts 297°
2026-05-06 22:45 -29.42011 157.45306 41785 ft 392 kts 297°
2026-05-06 22:45 -29.39150 157.39987 41771 ft 391 kts 297°
2026-05-06 22:46 -29.36286 157.34668 41773 ft 392 kts 297°
2026-05-06 22:46 -29.33409 157.29333 41783 ft 393 kts 297°
2026-05-06 22:47 -29.30541 157.24021 41777 ft 394 kts 297°
2026-05-06 22:47 -29.27652 157.18676 41773 ft 394 kts 297°
2026-05-06 22:48 -29.24772 157.13357 41773 ft 392 kts 297°
2026-05-06 22:48 -29.21893 157.08045 41777 ft 392 kts 297°
2026-05-06 22:49 -29.19034 157.02778 41780 ft 392 kts 297°
2026-05-06 22:49 -29.16161 156.97492 41772 ft 390 kts 297°
2026-05-06 22:50 -29.13290 156.92213 41770 ft 391 kts 297°
2026-05-06 22:50 -29.10407 156.86922 41766 ft 390 kts 297°
2026-05-06 22:51 -29.08021 156.82548 41764 ft 390 kts 297°
2026-05-06 22:51 -29.05154 156.77297 41761 ft 389 kts 297°
2026-05-06 22:52 -29.02289 156.72057 41764 ft 389 kts 297°
2026-05-06 22:52 -28.99426 156.66829 41769 ft 390 kts 297°
2026-05-06 22:53 -28.96537 156.61561 41776 ft 391 kts 297°
2026-05-06 22:53 -28.93659 156.56317 41793 ft 393 kts 297°
2026-05-06 22:54 -28.90760 156.51047 41775 ft 390 kts 297°
2026-05-06 22:54 -28.87873 156.45801 41768 ft 388 kts 297°
2026-05-06 22:55 -28.85013 156.40610 41767 ft 389 kts 297°
2026-05-06 22:55 -28.82124 156.35375 41762 ft 390 kts 298°
2026-05-06 22:56 -28.79227 156.30131 41768 ft 391 kts 298°
2026-05-06 22:56 -28.76321 156.24879 41775 ft 390 kts 298°
2026-05-06 22:57 -28.73441 156.19681 41781 ft 389 kts 298°
2026-05-06 22:57 -28.70551 156.14469 41778 ft 388 kts 298°
2026-05-06 22:58 -28.67667 156.09275 41774 ft 388 kts 298°
2026-05-06 22:58 -28.64786 156.04094 41969 ft 385 kts 298°
2026-05-06 22:59 -28.61894 155.98893 42063 ft 392 kts 298°
2026-05-06 22:59 -28.58991 155.93691 42064 ft 391 kts 298°
2026-05-06 23:00 -28.56088 155.88487 42061 ft 388 kts 298°
2026-05-06 23:00 -28.53197 155.83312 42065 ft 387 kts 298°
2026-05-06 23:01 -28.50301 155.78135 42065 ft 388 kts 298°
2026-05-06 23:01 -28.47415 155.72982 42064 ft 389 kts 298°
2026-05-06 23:02 -28.44501 155.67785 42070 ft 390 kts 298°
2026-05-06 23:02 -28.41577 155.62579 42069 ft 391 kts 298°
2026-05-06 23:03 -28.38647 155.57369 42077 ft 390 kts 298°
2026-05-06 23:03 -28.35735 155.52196 42071 ft 387 kts 298°
2026-05-06 23:04 -28.32853 155.47080 42069 ft 387 kts 298°
2026-05-06 23:04 -28.29939 155.41917 42072 ft 388 kts 298°
2026-05-06 23:05 -28.27044 155.36792 42073 ft 388 kts 298°
2026-05-06 23:05 -28.25592 155.34228 41544 ft 383 kts 298°
2026-05-06 23:05 -28.24159 155.31696 40989 ft 378 kts 298°
2026-05-06 23:05 -28.22747 155.29202 40474 ft 373 kts 298°
2026-05-06 23:06 -28.21358 155.26749 39995 ft 367 kts 298°
2026-05-06 23:06 -28.19986 155.24329 39538 ft 361 kts 298°
2026-05-06 23:06 -28.18637 155.21949 39086 ft 358 kts 298°
2026-05-06 23:06 -28.17308 155.19605 38624 ft 358 kts 298°
2026-05-06 23:07 -28.15951 155.17212 38099 ft 363 kts 298°
2026-05-06 23:07 -28.14576 155.14792 37613 ft 368 kts 298°
2026-05-06 23:07 -28.13183 155.12343 37097 ft 371 kts 298°
2026-05-06 23:07 -28.11777 155.09872 36575 ft 373 kts 298°
2026-05-06 23:08 -28.10365 155.07390 36061 ft 375 kts 298°
2026-05-06 23:08 -28.08977 155.04955 35526 ft 369 kts 298°
2026-05-06 23:08 -28.07598 155.02538 34992 ft 362 kts 298°
2026-05-06 23:08 -28.06239 155.00153 34494 ft 359 kts 298°
2026-05-06 23:09 -28.04886 154.97774 33985 ft 360 kts 298°
2026-05-06 23:09 -28.03523 154.95382 33434 ft 362 kts 298°
2026-05-06 23:09 -28.02162 154.93002 32901 ft 357 kts 298°
2026-05-06 23:09 -28.00823 154.90664 32420 ft 350 kts 299°
2026-05-06 23:10 -27.99511 154.88368 31931 ft 346 kts 299°
2026-05-06 23:10 -27.98200 154.86068 31464 ft 349 kts 300°
2026-05-06 23:10 -27.96876 154.83753 30999 ft 351 kts 300°
2026-05-06 23:10 -27.95557 154.81454 30505 ft 345 kts 300°
2026-05-06 23:11 -27.94258 154.79190 30029 ft 341 kts 300°
2026-05-06 23:11 -27.92969 154.76938 29526 ft 342 kts 300°
2026-05-06 23:11 -27.91666 154.74664 29035 ft 345 kts 300°
2026-05-06 23:11 -27.90359 154.72387 28570 ft 342 kts 300°
2026-05-06 23:12 -27.89074 154.70152 28106 ft 335 kts 300°
2026-05-06 23:12 -27.87808 154.67948 27656 ft 334 kts 300°
2026-05-06 23:12 -27.86538 154.65733 27223 ft 338 kts 300°
2026-05-06 23:12 -27.85253 154.63497 26919 ft 337 kts 300°
2026-05-06 23:13 -27.83991 154.61306 26507 ft 337 kts 300°
2026-05-06 23:13 -27.82721 154.59100 25992 ft 332 kts 300°
2026-05-06 23:13 -27.81466 154.56921 25496 ft 330 kts 300°
2026-05-06 23:13 -27.80213 154.54743 25060 ft 332 kts 300°
2026-05-06 23:14 -27.78948 154.52546 24610 ft 335 kts 300°
2026-05-06 23:14 -27.77675 154.50341 24160 ft 331 kts 300°
2026-05-06 23:14 -27.76425 154.48179 23727 ft 327 kts 300°
2026-05-06 23:14 -27.75184 154.46025 23234 ft 327 kts 300°
2026-05-06 23:15 -27.73936 154.43859 22763 ft 330 kts 300°
2026-05-06 23:15 -27.72677 154.41682 22317 ft 331 kts 300°
2026-05-06 23:15 -27.71444 154.39553 21881 ft 323 kts 300°
2026-05-06 23:15 -27.70219 154.37435 21456 ft 323 kts 301°
2026-05-06 23:16 -27.68985 154.35299 21035 ft 327 kts 301°
2026-05-06 23:16 -27.67733 154.33135 20626 ft 328 kts 301°
2026-05-06 23:16 -27.66498 154.31006 20210 ft 321 kts 301°
2026-05-06 23:16 -27.65272 154.28893 19763 ft 322 kts 301°
2026-05-06 23:17 -27.64042 154.26766 19372 ft 326 kts 301°
2026-05-06 23:17 -27.62798 154.24622 18952 ft 324 kts 302°
2026-05-06 23:17 -27.61574 154.22516 18543 ft 319 kts 302°
2026-05-06 23:17 -27.60370 154.20442 18093 ft 321 kts 302°
2026-05-06 23:18 -27.59142 154.18328 17642 ft 323 kts 302°
2026-05-06 23:18 -27.57912 154.16211 17213 ft 320 kts 302°
2026-05-06 23:18 -27.56697 154.14122 16679 ft 317 kts 303°
2026-05-06 23:18 -27.55486 154.12041 16110 ft 317 kts 303°
2026-05-06 23:19 -27.54275 154.09960 15541 ft 316 kts 303°
2026-05-06 23:19 -27.53090 154.07925 15298 ft 308 kts 303°
2026-05-06 23:19 -27.52040 154.05806 14978 ft 315 kts 292°
2026-05-06 23:19 -27.51517 154.03397 14640 ft 313 kts 283°
2026-05-06 23:20 -27.51139 154.01015 14310 ft 313 kts 282°
2026-05-06 23:20 -27.50758 153.98566 13951 ft 318 kts 282°
2026-05-06 23:20 -27.50356 153.96114 13534 ft 314 kts 283°
2026-05-06 23:20 -27.49957 153.93717 13128 ft 310 kts 283°
2026-05-06 23:21 -27.49564 153.91336 12707 ft 314 kts 282°
2026-05-06 23:21 -27.49136 153.88927 12281 ft 312 kts 286°
2026-05-06 23:21 -27.48188 153.86751 11811 ft 307 kts 304°
2026-05-06 23:21 -27.46780 153.84968 11419 ft 305 kts 313°
2026-05-06 23:22 -27.45295 153.83228 11064 ft 310 kts 313°
2026-05-06 23:22 -27.43821 153.81484 10693 ft 302 kts 313°
2026-05-06 23:22 -27.42416 153.79810 10490 ft 286 kts 312°
2026-05-06 23:22 -27.41089 153.78234 10367 ft 269 kts 312°
2026-05-06 23:23 -27.39822 153.76733 10102 ft 264 kts 312°
2026-05-06 23:23 -27.38562 153.75240 9819 ft 260 kts 312°
2026-05-06 23:23 -27.37329 153.73778 9600 ft 262 kts 312°
2026-05-06 23:23 -27.36066 153.72281 9367 ft 264 kts 312°
2026-05-06 23:24 -27.34798 153.70781 9138 ft 265 kts 312°
2026-05-06 23:24 -27.33555 153.69310 9076 ft 247 kts 312°
2026-05-06 23:24 -27.32615 153.67818 8998 ft 222 kts 297°
2026-05-06 23:24 -27.31906 153.66337 9007 ft 210 kts 298°
2026-05-06 23:25 -27.31195 153.64910 9012 ft 208 kts 298°
2026-05-06 23:25 -27.30511 153.63538 9005 ft 195 kts 298°
2026-05-06 23:25 -27.29854 153.62213 9004 ft 193 kts 298°
2026-05-06 23:25 -27.29203 153.60900 9010 ft 192 kts 298°
2026-05-06 23:26 -27.28558 153.59600 8938 ft 195 kts 298°
2026-05-06 23:26 -27.27890 153.58253 8656 ft 196 kts 298°
2026-05-06 23:26 -27.27217 153.56898 8384 ft 209 kts 298°
2026-05-06 23:26 -27.26434 153.55318 8110 ft 250 kts 298°
2026-05-06 23:27 -27.25570 153.53582 7871 ft 257 kts 298°
2026-05-06 23:27 -27.24691 153.51814 7622 ft 261 kts 298°
2026-05-06 23:27 -27.23806 153.50034 7370 ft 261 kts 298°
2026-05-06 23:27 -27.22923 153.48258 7147 ft 258 kts 298°
2026-05-06 23:28 -27.22072 153.46550 7018 ft 243 kts 298°
2026-05-06 23:28 -27.21262 153.44925 6779 ft 235 kts 298°
2026-05-06 23:28 -27.20467 153.43325 6366 ft 234 kts 298°
2026-05-06 23:28 -27.19659 153.41736 5940 ft 233 kts 301°
2026-05-06 23:29 -27.18486 153.40474 5416 ft 235 kts 323°
2026-05-06 23:29 -27.17220 153.39343 5147 ft 230 kts 318°
2026-05-06 23:29 -27.16030 153.38187 5028 ft 227 kts 318°
2026-05-06 23:29 -27.14823 153.37038 5033 ft 229 kts 319°
2026-05-06 23:30 -27.13626 153.35851 4994 ft 228 kts 310°
2026-05-06 23:30 -27.13010 153.34233 4983 ft 227 kts 280°
2026-05-06 23:30 -27.13133 153.32554 4997 ft 211 kts 252°
2026-05-06 23:30 -27.13742 153.31091 5040 ft 206 kts 245°
2026-05-06 23:31 -27.14367 153.29650 5018 ft 205 kts 245°
2026-05-06 23:31 -27.14972 153.28228 4888 ft 192 kts 245°
2026-05-06 23:31 -27.15513 153.26947 4765 ft 173 kts 246°
2026-05-06 23:31 -27.16113 153.25809 4514 ft 171 kts 230°
2026-05-06 23:32 -27.17111 153.25104 4292 ft 165 kts 210°
2026-05-06 23:32 -27.18134 153.24493 4167 ft 173 kts 210°
2026-05-06 23:32 -27.19195 153.23880 3939 ft 168 kts 209°
2026-05-06 23:32 -27.20226 153.23291 3735 ft 159 kts 209°
2026-05-06 23:33 -27.21169 153.22754 3515 ft 148 kts 210°
2026-05-06 23:33 -27.22082 153.22232 3339 ft 147 kts 210°
2026-05-06 23:33 -27.22990 153.21714 3145 ft 145 kts 210°
2026-05-06 23:33 -27.23887 153.21201 2950 ft 144 kts 210°
2026-05-06 23:34 -27.24779 153.20691 2762 ft 143 kts 210°
2026-05-06 23:34 -27.25666 153.20184 2580 ft 143 kts 210°
2026-05-06 23:34 -27.26550 153.19678 2390 ft 142 kts 210°
2026-05-06 23:34 -27.27418 153.19183 2205 ft 142 kts 210°
2026-05-06 23:35 -27.28290 153.18683 2027 ft 140 kts 210°
2026-05-06 23:35 -27.29161 153.18185 1839 ft 140 kts 210°
2026-05-06 23:35 -27.30022 153.17691 1658 ft 138 kts 210°
2026-05-06 23:35 -27.30880 153.17199 1465 ft 138 kts 210°
2026-05-06 23:36 -27.31740 153.16717 1283 ft 138 kts 210°
2026-05-06 23:36 -27.32596 153.16226 1104 ft 138 kts 210°
2026-05-06 23:36 -27.33453 153.15736 927 ft 138 kts 210°
2026-05-06 23:36 -27.34315 153.15239 739 ft 139 kts 209°
2026-05-06 23:37 -27.35182 153.14744 565 ft 140 kts 209°
2026-05-06 23:37 -27.36042 153.14252 376 ft 138 kts 209°
2026-05-06 23:37 -27.36893 153.13764 201 ft 136 kts 210°
2026-05-06 23:37 -27.37725 153.13287 42 ft 135 kts 209°
2026-05-06 23:38 -27.38483 153.12858 28 ft 105 kts 206°
2026-05-06 23:38 -27.38864 153.12638 30 ft 43 kts 211°
2026-05-06 23:38 -27.39018 153.12443 29 ft 20 kts 241°
2026-05-06 23:38 -27.39050 153.12381 28 ft 13 kts 239°
2026-05-06 23:39 -27.39101 153.12290 29 ft 14 kts 235°
2026-05-06 23:39 -27.39129 153.12209 27 ft 10 kts 271°
2026-05-06 23:39 -27.39142 153.12123 24 ft 8 kts 235°
2026-05-06 23:39 -27.39170 153.12093 29 ft 9 kts 216°
2026-05-06 23:40 -27.39229 153.12056 27 ft 11 kts 208°
2026-05-06 23:40 -27.39306 153.12011 27 ft 14 kts 207°
2026-05-06 23:40 -27.39397 153.11958 26 ft 16 kts 206°
2026-05-06 23:40 -27.39501 153.11900 28 ft 18 kts 206°
2026-05-06 23:41 -27.39618 153.11834 26 ft 20 kts 207°
2026-05-06 23:41 -27.39736 153.11764 28 ft 19 kts 207°
2026-05-06 23:41 -27.39833 153.11707 26 ft 13 kts 218°
2026-05-06 23:41 -27.39862 153.11621 25 ft 11 kts 257°
2026-05-06 23:42 -27.39904 153.11565 27 ft 10 kts 214°
2026-05-06 23:42 -27.39938 153.11535 26 ft 1 kts 244°
2026-05-06 23:42 -27.39938 153.11530 25 ft 1 kts 263°
2026-05-06 23:42 -27.39937 153.11526 25 ft 0 kts 281°
2026-05-06 23:43 -27.39932 153.11510 25 ft 5 kts 287°
2026-05-06 23:43 -27.39920 153.11458 26 ft 9 kts 284°
2026-05-06 23:43 -27.39916 153.11437 27 ft 0 kts 284°
2026-05-06 23:46 -27.21253 153.22707 3506 ft 147 kts 209°
2026-05-06 23:47 -27.22041 153.22256 3350 ft 147 kts 210°
2026-05-06 23:47 -27.22812 153.21815 3176 ft 146 kts 210°
2026-05-06 23:47 -27.23725 153.21293 2989 ft 144 kts 210°
2026-05-06 23:47 -27.24549 153.20822 2811 ft 143 kts 210°
2026-05-06 23:48 -27.25418 153.20326 2638 ft 143 kts 210°